Location: Lecco
(45.8566°N, 9.3977°E)
Time: 04:54:23
(UTC+02:00)

Transit 4A - Pass Details

Date: 21 August 2020
Orbit: 863 x 982 km, 66.8° (Epoch: 23 September)

Event Time Altitude Azimuth Distance (km) Brightness Sun altitude
Rises 18:07:52 0° 318° (NW) 3,674 11.5 21.9°
Reaches altitude 10° 18:10:51 10° 306° (NW) 2,732 11.2 21.4°
Maximum altitude 18:15:55 25° 253° (WSW) 1,850 11.7 20.5°
Drops below altitude 10° 18:20:59 10° 200° (SSW) 2,724 10.7 19.6°
Sets 18:23:58 0° 188° (S) 3,661 11.1 19.1°
